Sparta Invitational 2017

Sparta, MI
Hosted by Sparta
Timing/Results Michiana Timing

Sparta Invitational 2017 vs Sparta Invitational 2015

Aggregate Data Points
Difference This Meet That Meet
Overall Athletes +168 1166 998
Overall Average +6.28 23:32.68 23:26.40
1st-10th Place -19.31 16:43.35 17:02.66
1st-25th Place -14.61 17:03.08 17:17.69
1st-50th Place -14.05 17:24.16 17:38.21
1st-100th Place -10.01 17:54.46 18:04.48
Common Athletes -- -- 249
Ran Faster 95 172 77
Ran Season Best 2 6 4
Average Time -43.93 22:16.58 23:00.52
Median Time -57.86 21:41.01 22:38.87
Middle 80% Times -48.03 22:03.82 22:51.84
Top 10% Times -45.12 17:39.61 18:24.73
Top 25% Times -55.59 18:30.90 19:26.50
Top 50% Times -1:03.55 19:34.87 20:38.42
Bottom 50% Times -23.96 24:47.60 25:11.57
Bottom 25% Times -13.13 26:55.18 27:08.31
Bottom 10% Times -9.13 28:47.02 28:56.15
Average Difference -43.93 -- --
Median Difference -1:04.64 -- --
Middle 80% Difference -46.12 -- --
Top 10% Difference -39.04 -- --
Top 50% Difference -53.54 -- --
Top 25% Difference -38.70 -- --
Top 50% Difference -53.54 -- --
Bottom 50% Difference -34.49 -- --
Bottom 25% Difference -18.80 -- --
Bottom 10% Difference -29.73 -- --

Performances of Common Athletes
Athlete Team Difference This Meet That Meet
Alex Comerford Otsego -1:50.09 15:32.30 17:22.39
Will Finch Otsego -46.80 16:07.08 16:53.88
Aaron Weimer Holland West Ottawa -1:12.98 16:55.67 18:08.65
Colten Covington Grant -1:26.48 16:58.75 18:25.23
Brendan Deneen Fruitport -51.92 17:02.73 17:54.65
Fraser Wilson Kent City -4.92 17:09.77 17:14.69
Tommee Smith Sparta -38.31 17:13.34 17:51.65
Nathan Klaassen Hudsonville Unity Christian -2:01.47 17:19.54 19:21.01
Adam Jason Howard City Tri County -1:33.71 17:26.73 19:00.44
Cole Jensen Montague -1:31.87 17:30.04 19:01.91
Austin Hamilton Evart -55.29 17:37.69 18:32.98
Nathan Woods Evart +2.37 17:40.15 17:37.78
Spencer Cole Grant -12.71 17:52.60 18:05.31
Travis Hunt Hudsonville Unity Christian +2.13 17:55.00 17:52.87
Mike Altena Grand Rapids Covenant Christian -23.50 17:56.66 18:20.16
Marcos Garcia Kentwood Grand River Preparatory -1:41.33 18:03.74 19:45.07
Owen Pruim Grand Rapids South Christian -43.31 18:12.96 18:56.27
Joel Wilson Rockford -3:12.85 18:18.61 21:31.46
Matt Lipka Montague -4.13 18:19.13 18:23.26
Brice Vanoverloop Grand Rapids Covenant Christian +6.79 18:26.63 18:19.84
Kevin Kurgat Kentwood Grand River Preparatory -1:42.30 18:20.84 20:03.14
Lucas Vanderploeg Hudsonville Unity Christian -2:41.48 18:21.70 21:03.18
Peyton Sharlow Fruitport -3:50.40 18:23.31 22:13.71
Nick Forrest Rockford -2:30.62 18:23.34 20:53.96
Jack Potter West Michigan Aviation Academy -4:06.46 18:23.55 22:30.01
Julian Abbott Howard City Tri County -58.94 18:25.09 19:24.03
Tyler Esch Ionia +28.75 18:54.15 18:25.40
Austin Wilson West Michigan Aviation Academy -45.94 18:26.55 19:12.49
Ian Lee Greenville -3:55.01 18:27.57 22:22.58
Everett Smith Rockford -21.99 18:28.55 18:50.54
Alex Russo Kent City -2:25.52 18:32.26 20:57.78
Austin Bouma Hudsonville Unity Christian -45.45 18:37.10 19:22.55
Ethan Oudbier Sparta -3:01.84 18:38.37 21:40.21
Kenny Stump Lowell -1:30.12 18:40.43 20:10.55
Casey Carew Kent City -38.40 18:42.78 19:21.18
Tyler Warners Grand Rapids South Christian -21.30 18:45.35 19:06.65
Yordi Cardenas Ionia -33.46 18:46.06 19:19.52
Brandon Schultz Rockford -1:36.21 18:49.25 20:25.46
Isaiah Johnson Sparta +2.59 18:52.26 18:49.67
Zach Fagerlin Rockford -1:46.51 18:49.96 20:36.47
Dontae Havinga-ham Allegan -42.69 18:54.48 19:37.17
Christian Lipka Montague -28.49 18:58.71 19:27.20
Lucas Patin Rockford -4:32.26 19:01.18 23:33.44
Henry Kauffman Rockford -3:44.34 19:03.12 22:47.46
Mason Houtteman Saranac -31.38 19:04.02 19:35.40
Anthony Nykamp Grand Rapids South Christian -2:06.03 19:06.66 21:12.69
Logan Wilson Allegan -2:22.07 19:10.91 21:32.98
Travis Lubbers Grand Rapids Covenant Christian +36.63 19:47.75 19:11.12
Gavin Tucker Grandville -44.69 19:11.58 19:56.27
Connor Vanderwilt Grant -32.50 19:11.69 19:44.19
Jared Mitteer Belding -2:05.77 19:14.38 21:20.15
Eric Lastfogel Grand Rapids Catholic Central -2:03.26 19:21.71 21:24.97
James Klein Grand Rapids Catholic Central -25.48 19:22.42 19:47.90
Casey Wilfong Grandville +1:47.70 21:10.30 19:22.60
Eric Chavarria Wyoming Lee -3:59.55 19:23.87 23:23.42
Conner Meyers Lowell -1:58.55 19:25.01 21:23.56
Kamren Vanos Fruitport -1:33.08 19:25.09 20:58.17
Bevis Ip Grand Rapids South Christian -1:24.97 19:26.88 20:51.85
Evan Goetzinger Byron Center -1:50.42 19:29.99 21:20.41
Matthew Weimer Holland West Ottawa -36.30 19:31.12 20:07.42
Delonte Pearson West Michigan Aviation Academy +20.22 19:52.21 19:31.99
Wilson Deeren Ionia -26.33 19:37.21 20:03.54
Nick Stapleton Grand Rapids Catholic Central +1:08.38 20:47.81 19:39.43
Maddie Marciniak Otsego -27.81 19:41.63 20:09.44
Logan Jaglowski Grand Rapids Catholic Central -1:06.20 19:43.59 20:49.79
Elijah Kauffman Rockford -12:32.96 19:46.34 32:19.30
Seth Warren Grandville -2:53.38 19:48.25 22:41.63
Aric Haskins Greenville -2:10.92 19:49.69 22:00.61
Logan Smith Grandville -1:16.16 19:50.09 21:06.25
Zach Sykes Fruitport -1:29.55 19:50.23 21:19.78
Sydney Kubiak Otsego -54.14 19:50.57 20:44.71
Kyle Sokolowski Sparta -1:40.26 19:53.37 21:33.63
Andrew Wordhouse Grand Rapids NorthPointe Christian +3.01 19:59.67 19:56.66
Gage Devries Rockford +15.52 20:12.31 19:56.79
Brett Schuitema Grandville -4:08.46 19:57.36 24:05.82
Ryan Eitniear Fruitport -2:06.26 19:58.22 22:04.48
Lauren Freeland Kent City -20.34 19:58.78 20:19.12
Cole Kalsbeek Grand Rapids Covenant Christian -1:43.06 20:00.10 21:43.16
Wade Freeland Howard City Tri County -1:49.67 20:01.02 21:50.69
Jaden Gorsh Grandville -2:21.70 20:02.92 22:24.62
Chloe Wandell Ionia -1:07.89 20:02.95 21:10.84
Gracie Verhage Otsego -1.32 20:05.90 20:07.22
Nick Brown Ionia +40.50 20:46.80 20:06.30
Nathan Lieverdink Grand Rapids South Christian -1:44.62 20:09.14 21:53.76
Joe Westerlund Fruitport +56.06 21:05.37 20:09.31
Luke Ellermets Hudsonville -2.59 20:10.14 20:12.73
Jared Elder White Cloud +2:23.58 22:34.58 20:11.00
Evan Senn Greenville -3:22.11 20:20.02 23:42.13
Sam Darnell West Michigan Aviation Academy -2:25.18 20:21.38 22:46.56
Rafael Vega Wyoming Lee -3:57.83 20:23.66 24:21.49
Alex Brandt Lowell -1:59.36 20:23.80 22:23.16
Sydney Maddox Grand Rapids Catholic Central -1:54.44 20:24.24 22:18.68
Michael Simot Fruitport -4:27.98 20:28.56 24:56.54
Keagan Mills Greenville -1:34.48 20:29.18 22:03.66
Rudi Miller Holland West Ottawa +1:26.12 21:55.73 20:29.61
Josh Trierweiler Ionia -2:07.95 20:30.92 22:38.87
Jayden Vanmaurick Holland West Ottawa -2:14.28 20:31.18 22:45.46
Skyler Zokoe Howard City Tri County -2:35.85 20:31.20 23:07.05
Luciano Cistaro Holland West Ottawa -1:14.19 20:36.65 21:50.84
Andrew Smyk Holland West Ottawa +45.43 21:22.22 20:36.79
Rebecca Vanderkooi Grand Rapids South Christian +41.54 21:18.71 20:37.17
Hunter Milanowski Belding -1:32.54 20:37.18 22:09.72
Cory Ives Holland West Ottawa -12.37 20:37.49 20:49.86
Allyson Diebel Ionia +23.08 21:04.07 20:40.99
Zach Cleary Otsego -2:12.78 20:47.61 23:00.39
Elise Marshall Grand Rapids Catholic Central +56.39 21:44.59 20:48.20
Kenneth Totengco Howard City Tri County +1:18.58 22:10.39 20:51.81
Ryan Cadwallader Saranac -1:06.19 20:53.68 21:59.87
Daren Moelker Grand Rapids Covenant Christian -3:37.70 20:56.74 24:34.44
Molly Farrell Otsego -44.18 20:58.22 21:42.40
Bradley Vanbaren Grand Rapids Covenant Christian -3:36.07 20:58.24 24:34.31
Summer Longstreet Howard City Tri County -1:15.81 20:59.13 22:14.94
Kristen Brylowski Otsego -1:14.09 20:59.79 22:13.88
Haley Nieuwkoop Lowell -2:58.69 21:00.11 23:58.80
Ava Sousa Sparta -2:16.82 21:01.51 23:18.33
Tanner Ryan Evart -14.56 21:04.90 21:19.46
Brenna Stratton Otsego -53.96 21:05.67 21:59.63
Gina Farrell Otsego -26.41 21:08.09 21:34.50
Zachary Van Dyke Hudsonville Unity Christian +1:01.56 22:10.18 21:08.62
Hannah Gaffner Hudsonville Unity Christian +1:06.15 22:18.39 21:12.24
Cade Koehler Fruitport -6:21.72 21:12.91 27:34.63
Alexis Jimenez Wyoming -3:47.63 21:14.89 25:02.52
Jared Jasper Allegan +2:29.60 23:46.18 21:16.58
Ben Mccallum West Michigan Aviation Academy +1:54.22 23:10.81 21:16.59
Rachel Bolton Sparta -1:10.83 21:18.06 22:28.89
Jayden Kalsbeek Grand Rapids Covenant Christian -8.20 21:21.16 21:29.36
Jonathan Willison Kent City +16.88 21:40.13 21:23.25
Katrina Droski Lowell -2:01.38 21:23.61 23:24.99
Ethan Toth Holland West Ottawa -5:49.29 21:23.85 27:13.14
Diana Candela Rockford -1:06.68 21:29.30 22:35.98
Caleb Moelker Grand Rapids Covenant Christian -2:05.77 21:30.96 23:36.73
Ethan Stamm Grand Rapids NorthPointe Christian +23.00 22:00.53 21:37.53
Kendra E. Johnson Fruitport -1:45.69 21:38.25 23:23.94
Jonah Powell Saranac -3:16.24 21:41.01 24:57.25
Lauren Aud Lowell -11.10 21:47.73 21:58.83
Robby Smith Byron Center -30.64 21:50.01 22:20.65
Mary Claire Mikolay Grand Rapids Catholic Central -4:28.70 21:50.49 26:19.19
Katelyn Haskins Saranac +1:14.63 23:07.37 21:52.74
Maggie Hammer Rockford -18.51 21:53.33 22:11.84
Simon Johnson Fruitport -1:04.64 21:56.76 23:01.40
Trevor Jasper Allegan -56.10 21:57.19 22:53.29
Amber Bos Grand Rapids Covenant Christian -1:17.76 21:58.30 23:16.06
Jamin Gordon Hudsonville Unity Christian -2:01.40 21:58.64 24:00.04
Louis Ortiz Sparta -32.63 22:00.66 22:33.29
Grady Sakshaug Wyoming Kelloggsville +2:24.95 24:31.55 22:06.60
Ethan Grabill Grandville -3:11.19 22:06.87 25:18.06
Eryn Dendel Otsego -1:19.16 22:06.95 23:26.11
Eden Vanderweele Grand Rapids South Christian -1:00.31 22:08.51 23:08.82
Esmee Kuiper Hudsonville +24.63 22:37.10 22:12.47
Dawn Kondor Lowell -49.59 22:14.28 23:03.87
Avery Gill Grand Rapids Catholic Central +2:11.49 24:28.01 22:16.52
Victoria Wittenbach Belding +0.75 22:17.51 22:16.76
Josh Ridder Hudsonville Unity Christian +1:07.42 23:28.07 22:20.65
Alex Martin Ionia -13.05 22:21.64 22:34.69
Caleb Cook Byron Center -1:26.62 22:21.71 23:48.33
Emily Peterson Ionia +2:40.03 25:05.48 22:25.45
Jenna Murdock Sparta -28.87 22:25.87 22:54.74
David Green Evart +1:47.38 24:14.03 22:26.65
Ryan Kik Kent City +2:50.19 25:19.25 22:29.06
Leah Rau Grand Rapids Covenant Christian +24.49 22:59.22 22:34.73
Emily Goff Grand Rapids Union +2:58.05 25:37.98 22:39.93
Robert Wolters Grand Rapids Wellspring Prep +2:09.66 24:52.50 22:42.84
Cameron Karnes White Cloud +2:27.58 25:12.55 22:44.97
Christian Davis Lowell -2:01.13 22:46.73 24:47.86
Emma Pothoven Grand Rapids South Christian -2:19.57 22:47.06 25:06.63
Sarah Nelson Evart +2:42.96 25:30.98 22:48.02
Brenna Newhouse Grand Rapids South Christian +4.14 22:53.04 22:48.90
Marlie Fowler Lowell -1:13.69 22:53.07 24:06.76
Sidney Klynstra Saranac +2:47.05 25:44.75 22:57.70
Zoe Donker Grand Rapids South Christian +1:07.40 24:06.37 22:58.97
Mikkel Rasch-premo Byron Center +11.79 23:14.29 23:02.50
Dulcie Alderton West Michigan Aviation Academy -53.92 23:07.81 24:01.73
Jasmine Chadwick Saranac -0.63 23:17.98 23:18.61
Kevin Warner Belding +2:22.18 25:41.11 23:18.93
Alexander Groenhof Byron Center Zion Christian -2.12 23:21.89 23:24.01
Melanie Hanko Grand Rapids Covenant Christian -4.84 23:21.91 23:26.75
Haley Foster White Cloud -2:07.77 23:22.86 25:30.63
Victoria Austin Rockford -45.81 23:23.27 24:09.08
Jenna Hoover Sparta +1.18 23:26.91 23:25.73
Adele Kemp Greenville -49.69 23:27.33 24:17.02
Cassie Stersic Byron Center +14.13 23:46.05 23:31.92
Mason Winters Lowell -1:55.81 23:32.82 25:28.63
Evan Johnson Lowell -3:16.76 23:34.34 26:51.10
Hope Goosen Hudsonville +2:30.49 26:05.18 23:34.69
Sara Vruggink Grand Rapids Catholic Central +2:25.76 26:00.83 23:35.07
Evan Berkenpas Rockford -1:10.81 23:36.47 24:47.28
Maria Wierenga Byron Center Zion Christian -31.22 23:41.50 24:12.72
Holly Werkema Kentwood Grand River Preparatory -24.84 23:42.46 24:07.30
Geordie Ruid Saranac +3:44.89 27:29.01 23:44.12
Kassidi Gross Belding +1:13.67 25:00.23 23:46.56
Ian Mcconkey Holland West Ottawa +43.71 24:35.97 23:52.26
Sophie Fischer Grand Rapids Catholic Central +10.82 24:05.99 23:55.17
Jasmine Schierbeek Allegan -4:17.08 23:56.85 28:13.93
Connor Kemmerling Fruitport -4:34.40 23:59.11 28:33.51
Madelyn O'malley Rockford -2:08.92 23:59.12 26:08.04
Nicole Labine Grand Rapids Catholic Central -57.31 23:59.28 24:56.59
Sadie Wiegers Grand Rapids NorthPointe Christian +4:46.25 28:51.68 24:05.43
Sarah Sizemore Kent City +2:43.15 26:49.86 24:06.71
Olivia Duron Allegan +2:37.47 27:00.03 24:22.56
Hannah Windemuller Grand Rapids Covenant Christian -4:20.90 24:23.88 28:44.78
Ally Daniels Lakeview -3:21.27 24:25.07 27:46.34
Violet Shippert Kentwood Grand River Preparatory -11.59 24:27.64 24:39.23
Kayla Pasch White Cloud +14.44 24:56.05 24:41.61
Olivia Muniz Belding +2:04.62 26:47.49 24:42.87
Kelly Lubbers Grand Rapids Covenant Christian +38.84 25:24.27 24:45.43
Abby Dood Rockford -1:46.08 24:49.25 26:35.33
Courtney Spronk Grand Rapids Covenant Christian +10.12 25:00.52 24:50.40
Sydney Huyser Grand Rapids South Christian +1:53.02 26:45.44 24:52.42
Carissa Oskam Grand Rapids South Christian -1:51.50 24:57.17 26:48.67
Laura Tuttle Belding -1:43.74 25:02.64 26:46.38
Linus Gugino Holland West Ottawa -48.87 25:08.65 25:57.52
Arianna Mooney Evart +3:11.50 28:22.89 25:11.39
Alexa Jager Grand Rapids South Christian -30.81 25:15.18 25:45.99
Grace Vanderhart Hudsonville Unity Christian +2:09.34 27:34.09 25:24.75
Savannah Turner Byron Center +1.57 25:26.37 25:24.80
Michael Heindlmeyer Holland West Ottawa -2:18.26 25:26.37 27:44.63
Elise Boven Grand Rapids Covenant Christian +42.90 26:16.27 25:33.37
Maddie Sikkema Libertas Christian -2:10.13 25:33.71 27:43.84
Madelyn Monsma Grand Rapids Covenant Christian +31.37 26:07.57 25:36.20
Zoe Zimmerman Grant +44.14 26:20.81 25:36.67
Madelyn Harvey Grant -34.75 25:48.65 26:23.40
Evan Ford Hudsonville -40.90 25:50.61 26:31.51
Anna Vansledright Grand Rapids South Christian -1:19.52 25:50.74 27:10.26
Sarah Kalsbeek Grand Rapids Covenant Christian +3:31.14 29:34.54 26:03.40
Maddie Cooke Hudsonville -42.80 26:03.51 26:46.31
Devin Liang Wyoming Kelloggsville +1.32 26:12.92 26:11.60
Alex Roark Rockford -0.84 26:13.32 26:14.16
Erika Ybema Grand Rapids South Christian -2:51.72 26:21.40 29:13.12
Annie Schreur Grand Rapids South Christian -57.69 26:24.41 27:22.10
Brianne Robach Grand Rapids Catholic Central +6:22.19 32:49.33 26:27.14
Katie Perry Sparta +1:10.12 27:40.30 26:30.18
Emma Collins Greenville +1:21.13 28:00.58 26:39.45
Luke Keonigsknecht West Michigan Aviation Academy -1:49.34 26:40.80 28:30.14
Bryanna Vanbaren Grand Rapids Covenant Christian +58.35 27:58.89 27:00.54
Breanna Sutherland White Cloud -16.07 27:05.78 27:21.85
Katie Vandyke Grand Rapids South Christian -21.58 27:17.96 27:39.54
Karissa Kunst Libertas Christian -1:46.13 27:22.13 29:08.26
Quinlan Webster Grand Rapids Union +58.32 28:28.19 27:29.87
Isabel Latvaitis Grand Rapids South Christian -12.73 27:43.89 27:56.62
Olivia Heyboer Grand Rapids South Christian -4.60 27:49.23 27:53.83
Emma Hale Saranac -2.32 28:01.71 28:04.03
Sarah Deyoung Grand Rapids South Christian +1:36.74 29:41.30 28:04.56
Nolan Ford Hudsonville -19.89 28:04.93 28:24.82
Alekzandria Taylor White Cloud +1:41.86 30:16.81 28:34.95
Aleesa Smith Grant +25.69 29:04.23 28:38.54
Ana Horan Grand Rapids Covenant Christian -1:00.19 29:33.25 30:33.44
Alyssa Boersen Libertas Christian -1:21.30 29:39.04 31:00.34
Clay Davis Kent City -39.78 31:52.31 32:32.09
Sarah Boersen Libertas Christian -1:23.12 32:13.44 33:36.56